Regional Weather Roundup
Issued by NWS New Orleans/Baton Rouge, LA

Home | Current Version | Previous Version | Graphics & Text | Print | Product List | Glossary On
Versions: 1 2 3 4 5 6 7 8 9 10 11 12 13 14 15 16 17 18 19 20 21 22 23 24 25 26 27 28 29 30 31 32 33 34 35 36 37 38 39 40 41 42 43 44 45 46 47 48 49 50
021
ASUS44 KLIX 220601
RWRLIX
NEW ORLEANS REGIONAL WEATHER ROUNDUP
NATIONAL WEATHER SERVICE NEW ORLEANS LA
100 AM CDT TUE JUL 22 2014

NOTE: "FAIR" INDICATES FEW OR NO CLOUDS BELOW 12,000 FEET WITH NO
      SIGNIFICANT WEATHER AND/OR OBSTRUCTIONS TO VISIBILITY.
      SKY/WX - SKY CONDITION AND SIGNIFICANT WEATHER.
      TMP - AIR TEMPERATURE.     DP    - DEWPOINT TEMPERATURE.
      RH  - RELATIVE HUMIDITY.   PRES  - PRESSURE.
      HI  - HEAT INDEX.          WCI   - WIND CHILL INDEX.

*  THESE STATIONS ARE NOT NWS OR FAA STATIONS AND ARE NOT UNDER
   NWS QUALITY CONTROL.

LAZ038-040-048-061>063-065>067-069-220700-
SOUTHEAST LOUISIANA

CITY           SKY/WX    TMP DP  RH WIND       PRES   REMARKS
N.O. AUDUBON   NOT AVBL
N.O. INTL ARPT PTCLDY    80  74  81 S7        30.01S
6HR MIN TEMP:  80; 6HR MAX TEMP:  87;

N.O. LAKEFRONT PTCLDY    81  76  84 S7        30.01S
6HR MIN TEMP:  81; 6HR MAX TEMP:  88;

N.O. DOWNTOWN*   N/A     82  73  74 S5        30.01S
6HR MIN TEMP:  82; 6HR MAX TEMP:  88;

SLIDELL        MOCLDY    75  72  90 CALM      30.00F
6HR MIN TEMP:  75; 6HR MAX TEMP:  87;

BATON ROUGE    CLEAR     73  71  93 CALM      30.02R
6HR MIN TEMP:  73; 6HR MAX TEMP:  86;

BOOTHVILLE     CLEAR     80  76  87 SW5       30.01F
6HR MIN TEMP:  79; 6HR MAX TEMP:  84;

BELLE CHASSE   PTCLDY    79  74  84 SW3       30.00S
6HR MIN TEMP:  76; 6HR MAX TEMP:  86;

BOGALUSA*        N/A     74  70  89 CALM      30.03S
6HR MIN TEMP:  74; 6HR MAX TEMP:  87;

GALLIANO*      NOT AVBL
NEW ROADS*     MOCLDY    73  72  98 CALM      30.02S FOG
6HR MIN TEMP:  72; 6HR MAX TEMP:  85; 6HR PCP:  0.01;

GONZALES*      MOCLDY    76  76 100 CALM      30.00F
6HR MIN TEMP:  76; 6HR MAX TEMP:  87;

HAMMOND*       CLEAR     73  70  88 CALM      30.03S
HOUMA*         PTCLDY    78  74  87 CALM      30.01S FOG
6HR MIN TEMP:  77; 6HR MAX TEMP:  88; 6HR PCP:  0.11;

PORT FOURCHON* CLEAR     82  77  83 CALM      30.02F

$$

MSZ070-080>082-220700-
SOUTHERN MISSISSIPPI

CITY           SKY/WX    TMP DP  RH WIND       PRES   REMARKS
MCCOMB         CLEAR     72  69  90 CALM      30.03S
6HR MIN TEMP:  71; 6HR MAX TEMP:  84;

GULFPORT       CLEAR     77  72  84 CALM      30.00S
6HR MIN TEMP:  77; 6HR MAX TEMP:  89;

BILOXI         PTCLDY    79  72  80 CALM      30.00F
6HR MIN TEMP:  78; 6HR MAX TEMP:  86;

PASCAGOULA     PTCLDY    75  73  93 W3        29.99F
6HR MIN TEMP:  75; 6HR MAX TEMP:  85;


$$

COASTAL OBSERVATIONS
LAKE AND NEARSHORE STATIONS

STATION/POSITION TIME  TEMP    WIND        PRES    WAVE
                       AIR SEA DIR/SP/G            HT/PER
                 (UTC) (F)     (DEG/KT/KT) (MB)    (FT/S)
PASCAGOULA       0520   79     340/  4/  4 1015.5
WAVELAND YACHT   0520   81      CALM  /  2 1015.6
GRAND ISLE       0520   83 85  200/  5/  7 1016.9
SOUTHWEST PASS   0520   82 85  190/  5/  6 1016.6
NEW CANAL        0520   83 85  200/  4/  6 1016.6
SHELL BEACH      0520   80 82  190/  5/  6 1016.1

OFFSHORE STATIONS

STATION/POSITION TIME  TEMP    WIND        PRES    WAVE
                       AIR SEA DIR/SP/G            HT/PER
                 (UTC) (F)     (DEG/KT/KT) (MB)    (FT/S)
64 S DAUPHIN ISL 0452   83 83  280/  4/  6 1016.3

$$




USA.gov is the U.S. government's official web portal to all federal, state and local government web resources and services.